0 HST 1 20580U 90037B 26135.80219409 .00004599 00000-0 14449-3 0 9996 2 20580 28.4750 301.8457 0002071 129.2690 230.8090 15.30387000783603 0 ISS (ZARYA) 1 25544U 98067A 26136.13376888 .00005028 00000-0 98570-4 0 9990 2 25544 51.6318 98.7731 0007490 64.0316 296.1443 15.49230000566786 0 CXO 1 25867U 99040B 26137.63980620 .00000640 00000-0 00000-0 0 9993 2 25867 55.7295 117.4600 7892195 310.4750 359.8236 0.37807696 17216